FIN7YB EFHK-ESSA

Flight info

Callsign FIN7YB
Flight time 0h 47m
Altitude 28002
Route ADIVO Y365 POGOK DCT RUNGA N872 XILAN
Aircraft A321/M-SDE3FGHIRWY/LB1

Departure

Time 2026-04-25 18:39
Airport Helsinki Vantaa Airport (EFHK)

Arrival

Time 2026-04-25 19:26
Airport Stockholm-Arlanda Airport (ESSA)
Time Latitude Longitude Altitude Speed Heading
2026-04-25 18:16 60.31748 24.97126 162 ft 0 kts 243°
2026-04-25 18:27 60.31755 24.97151 161 ft 4 kts 248°
2026-04-25 18:28 60.31762 24.97202 161 ft 4 kts 266°
2026-04-25 18:28 60.31759 24.97253 161 ft 4 kts 304°
2026-04-25 18:28 60.31750 24.97272 161 ft 0 kts 333°
2026-04-25 18:32 60.31758 24.97264 161 ft 5 kts 333°
2026-04-25 18:32 60.31833 24.97189 161 ft 16 kts 333°
2026-04-25 18:33 60.31934 24.97180 161 ft 15 kts 27°
2026-04-25 18:33 60.32026 24.97139 161 ft 14 kts 334°
2026-04-25 18:33 60.32130 24.97036 161 ft 21 kts 334°
2026-04-25 18:33 60.32263 24.96897 161 ft 21 kts 331°
2026-04-25 18:34 60.32342 24.96811 161 ft 0 kts 333°
2026-04-25 18:34 60.32348 24.96806 161 ft 4 kts 333°
2026-04-25 18:34 60.32403 24.96750 162 ft 12 kts 333°
2026-04-25 18:34 60.32478 24.96673 163 ft 12 kts 333°
2026-04-25 18:35 60.32564 24.96576 161 ft 18 kts 330°
2026-04-25 18:35 60.32673 24.96450 161 ft 19 kts 330°
2026-04-25 18:35 60.32819 24.96280 161 ft 26 kts 329°
2026-04-25 18:35 60.32908 24.96071 161 ft 15 kts 257°
2026-04-25 18:36 60.32946 24.95925 161 ft 12 kts 322°
2026-04-25 18:36 60.33011 24.95838 161 ft 11 kts 327°
2026-04-25 18:36 60.33072 24.95756 161 ft 11 kts 325°
2026-04-25 18:36 60.33165 24.95592 161 ft 21 kts 317°
2026-04-25 18:37 60.33182 24.95346 161 ft 19 kts 237°
2026-04-25 18:37 60.33112 24.95121 161 ft 18 kts 245°
2026-04-25 18:37 60.33112 24.94885 161 ft 16 kts 273°
2026-04-25 18:37 60.33118 24.94640 163 ft 18 kts 273°
2026-04-25 18:38 60.33111 24.94410 172 ft 14 kts 254°
2026-04-25 18:38 60.33051 24.94251 176 ft 24 kts 228°
2026-04-25 18:38 60.32759 24.93608 174 ft 98 kts 227°
2026-04-25 18:38 60.32147 24.92247 166 ft 160 kts 232°
2026-04-25 18:39 60.31390 24.90461 746 ft 166 kts 234°
2026-04-25 18:39 60.30608 24.88707 1502 ft 171 kts 238°
2026-04-25 18:39 60.30094 24.86657 2059 ft 158 kts 280°
2026-04-25 18:39 60.30204 24.84556 2638 ft 146 kts 300°
2026-04-25 18:40 60.30601 24.82707 3191 ft 145 kts 307°
2026-04-25 18:40 60.31069 24.80726 3466 ft 168 kts 306°
2026-04-25 18:40 60.31613 24.78482 3781 ft 189 kts 301°
2026-04-25 18:40 60.31877 24.75669 3965 ft 226 kts 274°
2026-04-25 18:41 60.31770 24.72304 4172 ft 253 kts 273°
2026-04-25 18:41 60.31656 24.68669 4774 ft 264 kts 271°
2026-04-25 18:41 60.31558 24.64957 5550 ft 265 kts 272°
2026-04-25 18:41 60.31474 24.61218 6374 ft 268 kts 272°
2026-04-25 18:42 60.31386 24.57471 7253 ft 268 kts 273°
2026-04-25 18:42 60.31361 24.56251 7537 ft 268 kts 272°
2026-04-25 18:42 60.31197 24.49898 8935 ft 273 kts 271°
2026-04-25 18:42 60.31090 24.46052 9653 ft 281 kts 270°
2026-04-25 18:43 60.30983 24.41961 9892 ft 304 kts 270°
2026-04-25 18:43 60.30867 24.37559 10164 ft 322 kts 270°
2026-04-25 18:43 60.30741 24.33006 10834 ft 328 kts 269°
2026-04-25 18:43 60.30610 24.28393 11611 ft 330 kts 269°
2026-04-25 18:44 60.30480 24.23760 12397 ft 332 kts 269°
2026-04-25 18:44 60.30349 24.19088 13123 ft 335 kts 270°
2026-04-25 18:44 60.30217 24.14383 13807 ft 338 kts 269°
2026-04-25 18:44 60.30080 24.09597 14378 ft 344 kts 270°
2026-04-25 18:45 60.29988 24.06405 14840 ft 345 kts 270°
2026-04-25 18:45 60.29800 23.99908 15785 ft 348 kts 270°
2026-04-25 18:45 60.29428 23.95046 16510 ft 354 kts 261°
2026-04-25 18:45 60.28908 23.90241 17193 ft 357 kts 260°
2026-04-25 18:46 60.28373 23.85333 17838 ft 361 kts 259°
2026-04-25 18:46 60.27831 23.80366 18415 ft 363 kts 260°
2026-04-25 18:46 60.27287 23.75387 19037 ft 365 kts 260°
2026-04-25 18:46 60.26741 23.70400 19746 ft 365 kts 259°
2026-04-25 18:47 60.26191 23.65384 20307 ft 368 kts 259°
2026-04-25 18:47 60.25635 23.60316 20829 ft 373 kts 259°
2026-04-25 18:47 60.25072 23.55197 21458 ft 374 kts 259°
2026-04-25 18:47 60.24496 23.49997 22053 ft 376 kts 259°
2026-04-25 18:48 60.23931 23.44929 22671 ft 377 kts 258°
2026-04-25 18:48 60.23352 23.39744 23128 ft 381 kts 258°
2026-04-25 18:48 60.22766 23.34499 23428 ft 387 kts 258°
2026-04-25 18:48 60.22168 23.29199 23916 ft 389 kts 259°
2026-04-25 18:49 60.21563 23.23878 24355 ft 391 kts 259°
2026-04-25 18:49 60.20952 23.18535 24707 ft 394 kts 259°
2026-04-25 18:49 60.20335 23.13139 25051 ft 398 kts 258°
2026-04-25 18:49 60.19710 23.07682 25382 ft 401 kts 259°
2026-04-25 18:50 60.19081 23.02204 25782 ft 403 kts 259°
2026-04-25 18:50 60.18445 22.96700 26197 ft 405 kts 259°
2026-04-25 18:50 60.17803 22.91159 26494 ft 409 kts 259°
2026-04-25 18:50 60.17153 22.85568 26811 ft 413 kts 259°
2026-04-25 18:51 60.16497 22.79944 27168 ft 415 kts 259°
2026-04-25 18:51 60.16283 22.78117 27296 ft 415 kts 259°
2026-04-25 18:51 60.15169 22.68687 27562 ft 410 kts 258°
2026-04-25 18:51 60.14509 22.63157 27570 ft 405 kts 258°
2026-04-25 18:52 60.13860 22.57690 27536 ft 401 kts 259°
2026-04-25 18:52 60.13216 22.52261 27581 ft 399 kts 258°
2026-04-25 18:52 60.12570 22.46820 27570 ft 402 kts 259°
2026-04-25 18:52 60.11916 22.41348 27572 ft 405 kts 259°
2026-04-25 18:53 60.11256 22.35864 27589 ft 404 kts 258°
2026-04-25 18:53 60.10591 22.30394 27590 ft 403 kts 258°
2026-04-25 18:53 60.09933 22.25007 27591 ft 404 kts 259°
2026-04-25 18:53 60.09264 22.19539 27586 ft 404 kts 258°
2026-04-25 18:54 60.07924 22.08599 27592 ft 404 kts 259°
2026-04-25 18:54 60.07248 22.03130 27603 ft 404 kts 259°
2026-04-25 18:54 60.06571 21.97677 27609 ft 404 kts 258°
2026-04-25 18:55 60.05893 21.92214 27614 ft 404 kts 258°
2026-04-25 18:55 60.05216 21.86767 27620 ft 403 kts 259°
2026-04-25 18:55 60.04537 21.81322 27624 ft 403 kts 259°
2026-04-25 18:55 60.03853 21.75879 27624 ft 403 kts 258°
2026-04-25 18:56 60.03167 21.70449 27635 ft 403 kts 259°
2026-04-25 18:56 60.02479 21.65018 27635 ft 403 kts 259°
2026-04-25 18:56 60.01788 21.59582 27638 ft 403 kts 259°
2026-04-25 18:56 60.01093 21.54154 27635 ft 403 kts 258°
2026-04-25 18:57 60.00393 21.48722 27633 ft 404 kts 259°
2026-04-25 18:57 59.99698 21.43350 27635 ft 404 kts 259°
2026-04-25 18:57 59.98996 21.37927 27654 ft 404 kts 259°
2026-04-25 18:57 59.98755 21.36095 27654 ft 404 kts 258°
2026-04-25 18:58 59.97529 21.27089 27648 ft 404 kts 257°
2026-04-25 18:58 59.96006 21.16277 27660 ft 404 kts 258°
2026-04-25 18:58 59.95238 21.10875 27660 ft 404 kts 257°
2026-04-25 18:59 59.93706 21.00072 27671 ft 405 kts 257°
2026-04-25 18:59 59.92180 20.89289 27668 ft 404 kts 257°
2026-04-25 19:00 59.90906 20.80317 27637 ft 401 kts 257°
2026-04-25 19:00 59.90152 20.75037 27368 ft 392 kts 257°
2026-04-25 19:01 59.88661 20.64709 26847 ft 385 kts 257°
2026-04-25 19:01 59.87921 20.59604 26583 ft 382 kts 257°
2026-04-25 19:01 59.87187 20.54533 26322 ft 380 kts 257°
2026-04-25 19:01 59.86457 20.49493 26065 ft 377 kts 257°
2026-04-25 19:02 59.85005 20.39504 25406 ft 373 kts 257°
2026-04-25 19:02 59.84283 20.34575 25036 ft 370 kts 257°
2026-04-25 19:02 59.83562 20.29684 24667 ft 367 kts 257°
2026-04-25 19:03 59.82373 20.21660 24062 ft 361 kts 257°
2026-04-25 19:03 59.81427 20.15298 23583 ft 357 kts 257°
2026-04-25 19:03 59.80725 20.10579 23213 ft 354 kts 257°
2026-04-25 19:04 59.79342 20.01290 22312 ft 351 kts 257°
2026-04-25 19:04 59.78649 19.96668 21887 ft 348 kts 257°
2026-04-25 19:05 59.77263 19.87510 21052 ft 344 kts 257°
2026-04-25 19:05 59.75883 19.78450 20240 ft 341 kts 257°
2026-04-25 19:05 59.75197 19.73959 19887 ft 340 kts 257°
2026-04-25 19:06 59.74526 19.69483 19553 ft 338 kts 258°
2026-04-25 19:06 59.73302 19.60583 18832 ft 329 kts 260°
2026-04-25 19:06 59.72715 19.56217 18476 ft 326 kts 260°
2026-04-25 19:07 59.71544 19.47592 17739 ft 322 kts 260°
2026-04-25 19:07 59.70956 19.43321 17350 ft 321 kts 260°
2026-04-25 19:08 59.69782 19.34863 16560 ft 316 kts 260°
2026-04-25 19:08 59.69200 19.30686 16193 ft 314 kts 260°
2026-04-25 19:09 59.67451 19.18290 15229 ft 309 kts 260°
2026-04-25 19:09 59.67067 19.15588 15028 ft 308 kts 260°
2026-04-25 19:09 59.65718 19.06090 14513 ft 306 kts 261°
2026-04-25 19:10 59.65143 19.02048 14092 ft 304 kts 261°
2026-04-25 19:10 59.64573 18.98063 13771 ft 299 kts 261°
2026-04-25 19:10 59.64005 18.94119 13380 ft 297 kts 261°
2026-04-25 19:10 59.63443 18.90214 12940 ft 295 kts 260°
2026-04-25 19:11 59.62821 18.86347 12486 ft 295 kts 258°
2026-04-25 19:11 59.62167 18.82507 12044 ft 295 kts 258°
2026-04-25 19:11 59.61508 18.78677 11606 ft 294 kts 258°
2026-04-25 19:11 59.60847 18.74862 11173 ft 293 kts 258°
2026-04-25 19:12 59.60184 18.71062 10754 ft 292 kts 258°
2026-04-25 19:12 59.59518 18.67274 10317 ft 292 kts 258°
2026-04-25 19:12 59.58856 18.63540 10008 ft 292 kts 258°
2026-04-25 19:12 59.58182 18.59762 9677 ft 292 kts 258°
2026-04-25 19:13 59.57508 18.55991 9289 ft 291 kts 258°
2026-04-25 19:13 59.56835 18.52233 8881 ft 290 kts 258°
2026-04-25 19:13 59.56166 18.48499 8487 ft 288 kts 258°
2026-04-25 19:13 59.55503 18.44835 8091 ft 278 kts 258°
2026-04-25 19:14 59.54848 18.41259 7733 ft 278 kts 258°
2026-04-25 19:14 59.54413 18.38885 7475 ft 278 kts 258°
2026-04-25 19:14 59.53537 18.34107 6982 ft 276 kts 258°
2026-04-25 19:14 59.52887 18.30562 6625 ft 275 kts 258°
2026-04-25 19:15 59.52235 18.27028 6263 ft 274 kts 258°
2026-04-25 19:15 59.51585 18.23506 5883 ft 273 kts 258°
2026-04-25 19:15 59.50937 18.19995 5496 ft 272 kts 258°
2026-04-25 19:15 59.50302 18.16527 5320 ft 268 kts 260°
2026-04-25 19:16 59.50016 18.13007 5073 ft 258 kts 274°
2026-04-25 19:16 59.49585 18.09531 4790 ft 271 kts 249°
2026-04-25 19:16 59.48332 18.06679 4527 ft 284 kts 219°
2026-04-25 19:16 59.46523 18.05061 4283 ft 285 kts 200°
2026-04-25 19:17 59.44643 18.03986 4100 ft 278 kts 198°
2026-04-25 19:17 59.42799 18.02995 3886 ft 272 kts 198°
2026-04-25 19:17 59.41014 18.02041 3670 ft 267 kts 198°
2026-04-25 19:17 59.39242 18.01101 3462 ft 261 kts 198°
2026-04-25 19:18 59.37595 17.99837 3251 ft 248 kts 221°
2026-04-25 19:18 59.36538 17.97414 3038 ft 224 kts 256°
2026-04-25 19:18 59.36287 17.94611 2906 ft 199 kts 278°
2026-04-25 19:18 59.36326 17.91971 2814 ft 190 kts 282°
2026-04-25 19:19 59.36575 17.89543 2713 ft 174 kts 309°
2026-04-25 19:19 59.37445 17.88104 2638 ft 163 kts 339°
2026-04-25 19:19 59.38485 17.87365 2571 ft 162 kts 345°
2026-04-25 19:19 59.39201 17.86937 2523 ft 163 kts 346°
2026-04-25 19:20 59.40649 17.86093 2483 ft 163 kts 346°
2026-04-25 19:20 59.41738 17.85458 2480 ft 164 kts 346°
2026-04-25 19:20 59.42831 17.84821 2481 ft 164 kts 346°
2026-04-25 19:20 59.43932 17.84298 2469 ft 160 kts
2026-04-25 19:21 59.45009 17.84724 2481 ft 157 kts
2026-04-25 19:21 59.47140 17.85390 2481 ft 156 kts
2026-04-25 19:21 59.48208 17.85756 2480 ft 156 kts
2026-04-25 19:22 59.49277 17.86132 2481 ft 156 kts
2026-04-25 19:22 59.50347 17.86513 2481 ft 157 kts
2026-04-25 19:22 59.52495 17.87281 2410 ft 157 kts
2026-04-25 19:23 59.53564 17.87665 2273 ft 155 kts
2026-04-25 19:23 59.55617 17.88403 1856 ft 144 kts
2026-04-25 19:23 59.56591 17.88752 1643 ft 141 kts
2026-04-25 19:24 59.57554 17.89098 1447 ft 141 kts
2026-04-25 19:24 59.58514 17.89443 1248 ft 140 kts
2026-04-25 19:24 59.60433 17.90138 803 ft 140 kts
2026-04-25 19:25 59.62353 17.90831 436 ft 142 kts
2026-04-25 19:25 59.63332 17.91186 243 ft 143 kts
2026-04-25 19:25 59.64296 17.91523 107 ft 131 kts
2026-04-25 19:26 59.65036 17.91794 104 ft 83 kts 10°
2026-04-25 19:26 59.65477 17.91954 107 ft 43 kts 12°
2026-04-25 19:26 59.65662 17.92072 108 ft 24 kts 27°
2026-04-25 19:26 59.65772 17.92209 107 ft 15 kts 39°
2026-04-25 19:27 59.65792 17.92395 105 ft 15 kts 129°
2026-04-25 19:27 59.65727 17.92408 105 ft 15 kts 187°
2026-04-25 19:27 59.65566 17.92349 105 ft 23 kts 191°
2026-04-25 19:27 59.65405 17.92287 104 ft 24 kts 191°
2026-04-25 19:28 59.65235 17.92228 107 ft 25 kts 189°
2026-04-25 19:28 59.65082 17.92176 107 ft 19 kts 188°
2026-04-25 19:28 59.64981 17.92194 108 ft 8 kts 129°
2026-04-25 19:28 59.64950 17.92260 112 ft 7 kts 145°
2026-04-25 19:29 59.64841 17.92247 112 ft 21 kts 191°
2026-04-25 19:29 59.64693 17.92197 112 ft 22 kts 190°
2026-04-25 19:29 59.64539 17.92140 112 ft 23 kts 191°
2026-04-25 19:29 59.64417 17.92115 114 ft 17 kts 168°
2026-04-25 19:30 59.64365 17.92217 114 ft 16 kts 119°
2026-04-25 19:30 59.64334 17.92375 114 ft 10 kts 77°
2026-04-25 19:30 59.64407 17.92475 112 ft 9 kts 31°
2026-04-25 19:30 59.64442 17.92548 112 ft 5 kts 54°
2026-04-25 19:31 59.64452 17.92576 112 ft 4 kts 56°
2026-04-25 19:31 59.64464 17.92612 112 ft 2 kts 57°
2026-04-25 19:31 59.64470 17.92629 112 ft 0 kts 57°